Regional Weather Roundup
Issued by NWS

Home | Current Version | Previous Version | Text Only | Print | Product List | Glossary Off
Versions: 1 2 3 4 5 6 7 8 9 10 11 12 13 14 15 16 17 18 19 20 21 22 23 24 25 26 27 28 29 30 31 32 33 34 35 36 37 38 39 40 41 42 43 44 45 46 47 48 49 50

000
ASUS43 KMPX 140901
RWRMN
WEATHER ROUNDUP FOR MINNESOTA
NATIONAL WEATHER SERVICE TWIN CITIES/CHANHASSEN MN
400 AM CDT MON JUL 14 2014


NOTE: "FAIR" INDICATES FEW OR NO CLOUDS BELOW 12,000 FEET WITH NO
SIGNIFICANT WEATHER AND/OR OBSTRUCTIONS TO VISIBILITY. N/A MEANS
CURRENT SKY AND/OR WEATHER CONDITIONS ARE NOT AVAILABLE.

MNZ060>063-068>070-141000-
   Twin Cities Metro

CITY           SKY/WX    TMP DP  RH WIND       PRES   REMARKS
TWIN CITIES    MOCLDY    63  50  62 NW9       29.88F
ST PAUL        MOCLDY    61  50  67 NW8       29.88S
BLAINE         PTCLDY    57  52  82 W5        29.89S
LAKEVILLE      CLEAR     54  52  94 CALM      29.89S
EDEN PRAIRIE   CLOUDY    63  51  65 NW5       29.88S
SOUTH ST PAUL  CLOUDY    63  49  59 NW6       29.88S
LAKE ELMO      FAIR      59  52  77 NW3       29.89S
$$
MNZ001>005-007-008-013>017-022>024-027-028-141000-
   Northwest Minnesota

CITY           SKY/WX    TMP DP  RH WIND       PRES   REMARKS
BEMIDJI        CLOUDY    49  47  93 NW13G18   29.89S
HALLOCK        PTCLDY    48  45  87 NW13      30.01R
ROSEAU         CLOUDY    48  45  87 NW15      29.94R
WARROAD        CLOUDY    48  45  87 NW16      29.92R
THIEF RVR FALL CLOUDY    48  45  87 NW18      29.97R
CROOKSTON      MOCLDY    48  48 100 N15       30.00R
FOSSTON        MOCLDY    46  45  93 NW18G26   29.95R
MOORHEAD       CLOUDY    55  52  88 NW16G22   29.98F
PARK RAPIDS    MOCLDY    50  48  93 NW8       29.90S
$$
MNZ006-009>011-018-025>026-141000-
   North Central Minnesota

CITY           SKY/WX    TMP DP  RH WIND       PRES   REMARKS
BAUDETTE       CLOUDY    52  48  86 N15G23    29.86R
FLAG ISLAND    CLOUDY    54  50  87 N22       29.88R
INTL FALLS     LGT RAIN  49  48  97 NW7       29.80S FOG
WASKISH        LGT RAIN  50  46  87 W7G21     29.86S
BIG FORK       CLOUDY    50  46  87 NW5       29.84S
LONGVILLE      CLOUDY    52  48  87 W7        29.86F
GRAND RAPIDS   CLOUDY    50  45  81 NW9G18    29.84S
CRANE LAKE     LGT RAIN  48  46  93 CALM      29.80S
ORR            RAIN      48  46  93 W7        29.78S
COOK           CLOUDY    48  48 100 W9        29.81S
$$
MNZ012-019>021-037-141000-
   Northeast Minnesota

CITY           SKY/WX    TMP DP  RH WIND       PRES   REMARKS
DULUTH         PTCLDY    52  48  86 W9        29.81F
ELY            LGT RAIN  50  46  87 W7        29.79S
HIBBING        CLOUDY    51  47  86 NW8       29.82S
EVELETH        LGT RAIN  52  50  93 W7        29.82S
DULUTH HARBOR  PTCLDY    55  52  88 SW9       29.82F
TWO HARBORS    CLOUDY    50  46  87 CALM      29.79F
SILVER BAY     MOCLDY    50  50 100 CALM      29.77F
GRAND MARAIS     N/A     46  44  93 SW8       29.77F
G MARAIS ARPRT MOCLDY    48  45  87 W3        29.79F
$$
MNZ029>031-032-039>041-046>048-054>057-064-141000-
   West Central Minnesota

CITY           SKY/WX    TMP DP  RH WIND       PRES   REMARKS
FERGUS FALLS   CLOUDY    55  46  71 N15G23    29.97R
WHEATON        PTCLDY    57  45  62 NW13G21   29.99R
MORRIS         MOCLDY    61  48  63 NW13      29.95S
ALEXANDRIA     MOCLDY    59  46  62 NW15G23   29.94S
ELBOW LAKE     CLOUDY    57  46  67 NW12      29.96R
WADENA         MOCLDY    54  46  76 NW14G24   29.92R
GLENWOOD       CLEAR     57  46  67 NW17      29.94R
APPLETON       CLOUDY    59  54  82 W6        29.96R
BENSON         CLOUDY    57  52  82 NW6       29.96R
ORTONVILLE     CLOUDY    61  50  67 NW9       29.98R
MADISON        CLOUDY    61  52  72 NW8       29.97S
WILLMAR        CLOUDY    61  50  67 W9        29.95S
$$
MNZ033>034-036-042>043-049>051-058-059-141000-
   Central Minnesota

CITY           SKY/WX    TMP DP  RH WIND       PRES   REMARKS
ST CLOUD       CLOUDY    59  51  75 W3        29.89S
SAUK CENTRE    PTSUNNY   58  47  66 W7        29.92R
PAYNESVILLE    CLOUDY    53  50  89 SW7       29.93R
AITKIN         MIX PCPN  55  48  76 NW7G20    29.86R
PINE RIVER     CLOUDY    52  48  87 NW9       29.92S
BRAINERD       MOCLDY    62  47  57 NW12      29.88S
STAPLES        CLOUDY    54  46  76 W16G25    29.90R
LONG PRAIRIE   CLOUDY    55  46  71 NW9       29.92R
LITTLE FALLS   MOCLDY    55  46  71 W3        29.89S
LITCHFIELD     MOCLDY    63  50  63 W9        29.92S
BUFFALO        PTCLDY    58  51  75 W3        29.90F
MAPLE LAKE     PTCLDY    57  52  84 W3        29.91S
$$
MNZ037-044-045-052-053-141000-
   East Central Minnesota

CITY           SKY/WX    TMP DP  RH WIND       PRES   REMARKS
PRINCETON      CLOUDY    57  54  88 CALM      29.88F
MORA           CLOUDY    55  48  76 W3        29.88F
CAMBRIDGE      CLOUDY    61  48  63 CALM      29.86F
RUSH CITY      CLOUDY    56  51  81 CALM      29.87F
MOOSE LAKE     PTCLDY    52  50  93 W6        29.83F
HINCKLEY       CLOUDY    54  52  94 SW5       29.86S
CLOQUET        CLOUDY    52  48  87 W7        29.82F
MCGREGOR       CLOUDY    54  50  87 NW8       29.86S
$$
MNZ071>073-080-081-089-090-097-098-141000-
   Southwest Minnesota

CITY           SKY/WX    TMP DP  RH WIND       PRES   REMARKS
MONTEVIDEO     CLOUDY    57  52  82 NW3       29.97S
GRANITE FALLS  MOCLDY    53  50  90 W5        29.98R
CANBY          MOCLDY    54  50  86 W9        29.99S
MARSHALL       PTCLDY    54  46  76 W9        29.96S
REDWOOD FALLS  PTCLDY    55  51  86 W7        29.94S
OLIVIA         CLOUDY    57  52  82 NW6       29.93S
PIPESTONE      CLEAR     55  48  76 NW7       30.00R
WINDOM         CLEAR     52  48  87 W6        29.97R
WORTHINGTON    CLEAR     52  48  87 W7        29.99S
JACKSON        CLEAR     54  48  82 W5        29.97S
TRACY          CLEAR     56  49  77 W6        29.98R
SLAYTON        CLEAR     54  47  78 CALM      29.99S
$$
MNZ065>067-074>077-082>085-091>093-141000-
   South Central Minnesota

CITY           SKY/WX    TMP DP  RH WIND       PRES   REMARKS
MANKATO        CLEAR     57  46  67 W6        29.92S
NEW ULM        CLEAR     55  52  88 NW7       29.93S
ST JAMES       CLEAR     55  50  82 W6        29.95S
FAIRMONT       CLEAR     57  43  58 NW9       29.95R
GLENCOE        MOCLDY    61  50  67 W5        29.91S
FARIBAULT      CLEAR     57  48  72 W3        29.91S
OWATONNA       CLEAR     54  48  82 CALM      29.91S
WASECA         CLEAR     50  45  81 W3        29.93S
ALBERT LEA     CLEAR     57  52  82 CALM      29.92S
$$
MNZ078>079-086>088-094>096-141000-
   Southeast Minnesota

CITY           SKY/WX    TMP DP  RH WIND       PRES   REMARKS
ROCHESTER      CLEAR     53  48  83 W9        29.91S
RED WING       CLEAR     54  52  94 CALM      29.87S
STANTON        CLEAR     54  49  85 SW3       29.88S
DODGE CENTER   PTCLDY    54  48  82 W8        29.91R
WINONA         CLEAR     55  54  94 CALM      29.88S
AUSTIN         CLEAR     55  48  76 W3        29.91S
PRESTON        CLEAR     58  49  72 W8        29.91S
$$
ABBREVIATIONS USED IN REMARKS
   TC - TEMPERATURES IN CELSIUS
  WCI - WIND CHILL INDEX
   HX - HEAT INDEX
  VSB - VISIBILITY
$$


USA.gov is the U.S. government's official web portal to all federal, state and local government web resources and services.